TimeMST,TemperatureF,Dew PointF,Humidity,Sea Level PressureIn,VisibilityMPH,Wind Direction,Wind SpeedMPH,Gust SpeedMPH,PrecipitationIn,Events,Conditions,WindDirDegrees,DateUTC
12:01 AM,19.4,17.6,93,29.74,2.5,ENE,9.2,-,N/A,,Overcast,70,2012-12-08 07:01:00
12:12 AM,19.4,17.6,93,29.73,2.0,ENE,11.5,-,N/A,,Overcast,60,2012-12-08 07:12:00
12:34 AM,19.4,17.6,93,29.73,1.8,ENE,11.5,-,N/A,,Overcast,70,2012-12-08 07:34:00
12:45 AM,19.4,17.6,93,29.73,2.0,East,9.2,-,N/A,,Overcast,80,2012-12-08 07:45:00
12:53 AM,19.9,18.0,92,29.83,2.0,ENE,10.4,-,N/A,,Overcast,70,2012-12-08 07:53:00
1:14 AM,19.4,17.6,93,29.72,1.8,ENE,12.7,-,N/A,,Overcast,70,2012-12-08 08:14:00
1:53 AM,19.9,18.0,92,29.80,1.2,ENE,16.1,-,N/A,,Overcast,70,2012-12-08 08:53:00
2:53 AM,19.0,17.1,92,29.80,1.2,ENE,16.1,20.7,N/A,,Overcast,70,2012-12-08 09:53:00
3:33 AM,17.6,15.8,93,29.70,1.0,ENE,13.8,-,0.00,Snow,Light Snow,70,2012-12-08 10:33:00
3:41 AM,17.6,15.8,93,29.70,0.8,ENE,15.0,-,0.00,Snow,Light Snow,70,2012-12-08 10:41:00
3:53 AM,17.6,15.8,93,29.69,0.8,ENE,15.0,-,N/A,Snow,Light Snow,60,2012-12-08 10:53:00
4:31 AM,17.6,14.0,86,29.68,0.8,ENE,17.3,23.0,0.00,Snow,Light Snow,60,2012-12-08 11:31:00
4:44 AM,17.6,14.0,86,29.69,1.0,ENE,15.0,-,0.00,Snow,Light Snow,60,2012-12-08 11:44:00
4:53 AM,17.1,14.0,88,29.78,1.0,ENE,16.1,-,0.00,Snow,Light Snow,60,2012-12-08 11:53:00
5:06 AM,15.8,12.2,86,29.69,1.2,ENE,16.1,-,0.00,Snow,Light Snow,60,2012-12-08 12:06:00
5:34 AM,15.8,12.2,86,29.69,1.0,ENE,16.1,-,0.00,Snow,Light Snow,60,2012-12-08 12:34:00
5:37 AM,15.8,12.2,86,29.69,0.8,ENE,15.0,-,0.00,Snow,Light Snow,60,2012-12-08 12:37:00
5:53 AM,16.0,12.9,88,29.80,0.8,ENE,16.1,-,0.00,Snow,Light Snow,60,2012-12-08 12:53:00
5:59 AM,15.8,12.2,86,29.69,0.5,ENE,15.0,-,0.00,Fog-Snow,Snow,60,2012-12-08 12:59:00
6:53 AM,15.1,12.0,88,29.83,0.5,NE,13.8,-,0.00,Fog-Snow,Snow,50,2012-12-08 13:53:00
7:24 AM,15.8,10.4,79,29.74,0.8,ENE,17.3,-,0.00,Snow,Light Snow,60,2012-12-08 14:24:00
7:26 AM,14.0,10.4,86,29.74,1.0,ENE,15.0,-,0.00,Snow,Light Snow,60,2012-12-08 14:26:00
7:53 AM,14.0,10.0,84,29.86,0.8,ENE,18.4,-,0.00,Snow,Light Snow,60,2012-12-08 14:53:00
8:53 AM,14.0,10.0,84,29.89,0.2,ENE,17.3,-,0.01,Fog-Snow,Snow,60,2012-12-08 15:53:00
9:23 AM,14.0,10.4,86,29.80,0.2,NE,16.1,-,0.00,Fog-Snow,Snow,50,2012-12-08 16:23:00
9:53 AM,14.0,10.9,88,29.93,0.2,NE,23.0,26.5,0.00,Fog-Snow,Heavy Snow,40,2012-12-08 16:53:00
10:29 AM,14.0,10.4,86,29.84,0.2,NE,19.6,25.3,0.00,Fog-Snow,Snow,40,2012-12-08 17:29:00
10:53 AM,14.0,10.0,84,29.96,0.2,NE,18.4,-,0.00,Fog-Snow,Snow,40,2012-12-08 17:53:00
11:31 AM,14.0,10.4,86,29.87,0.5,NE,19.6,-,0.00,Fog-Snow,Snow,40,2012-12-08 18:31:00
11:53 AM,14.0,10.0,84,29.99,0.8,NE,18.4,26.5,0.00,Snow,Light Snow,40,2012-12-08 18:53:00
12:37 PM,14.0,8.6,79,29.91,1.0,NE,19.6,28.8,0.00,Snow,Light Snow,40,2012-12-08 19:37:00
12:41 PM,14.0,8.6,79,29.91,1.2,NE,18.4,28.8,0.00,Snow,Light Snow,40,2012-12-08 19:41:00
12:47 PM,14.0,8.6,79,29.92,3.0,NE,17.3,24.2,0.00,Snow,Light Snow,40,2012-12-08 19:47:00
12:53 PM,14.0,8.1,77,30.03,7.0,NE,17.3,24.2,0.00,,Overcast,40,2012-12-08 19:53:00
1:33 PM,12.2,6.8,79,29.95,1.8,NE,23.0,28.8,N/A,Snow,Blowing Snow,40,2012-12-08 20:33:00
1:42 PM,12.2,6.8,79,29.96,3.0,NNE,21.9,26.5,N/A,Snow,Blowing Snow,30,2012-12-08 20:42:00
1:53 PM,12.9,6.1,74,30.08,3.0,NNE,21.9,27.6,N/A,,Haze,30,2012-12-08 20:53:00
1:58 PM,12.2,6.8,79,29.97,1.8,NE,21.9,29.9,N/A,Snow,Blowing Snow,40,2012-12-08 20:58:00
2:07 PM,12.2,6.8,79,29.98,3.0,NE,16.1,26.5,0.00,,Scattered Clouds,40,2012-12-08 21:07:00
2:53 PM,10.9,3.9,73,30.15,9.0,NNE,18.4,-,0.00,,Clear,20,2012-12-08 21:53:00
3:53 PM,9.0,3.0,77,30.22,10.0,North,11.5,-,N/A,,Clear,10,2012-12-08 22:53:00
4:53 PM,7.0,-0.0,73,30.28,10.0,North,15.0,-,N/A,,Clear,360,2012-12-08 23:53:00
5:53 PM,5.0,-2.0,73,30.31,10.0,NNE,12.7,-,N/A,,Clear,20,2012-12-09 00:53:00
6:53 PM,3.0,-2.9,76,30.36,10.0,North,10.4,-,N/A,,Clear,350,2012-12-09 01:53:00
7:53 PM,1.9,-4.0,76,30.40,10.0,Calm,Calm,-,N/A,,Mostly Cloudy,0,2012-12-09 02:53:00
8:53 PM,3.9,-2.0,76,30.43,10.0,Calm,Calm,-,N/A,,Overcast,0,2012-12-09 03:53:00
9:53 PM,-0.0,-2.9,88,30.47,10.0,Calm,Calm,-,N/A,,Overcast,0,2012-12-09 04:53:00
10:53 PM,-0.9,-2.9,91,30.49,10.0,WSW,4.6,-,N/A,,Mostly Cloudy,240,2012-12-09 05:53:00
11:53 PM,-6.0,-9.0,87,30.50,10.0,Calm,Calm,-,N/A,,Clear,0,2012-12-09 06:53:00